Location: Asheville, NC
(35.6000°N, 82.5500°W)
Time: 20:21:00
(UTC-04:00)

RS-15 - Pass Details

Date: 12 March 2018
Orbit: 1890 x 2154 km, 64.8° (Epoch: 24 June)

Event Time Altitude Azimuth Distance (km) Brightness Sun altitude
Exits shadow 05:20:21 - 311° (NW) 5,060 9.9 -29.9°
Reaches altitude 10° 05:23:34 10° 324° (NW) 4,605 9.8 -29.2°
Maximum altitude 05:29:08 14° 353° (N) 4,239 9.9 -28.2°
Drops below altitude 10° 05:34:37 10° 21° (NNE) 4,511 10.4 -27.1°
Sets 05:40:52 0° 46° (NE) 5,450 11.3 -25.9°
